Location: Luz Observatory
(34.5000°N, 117.2833°W)
Time: 07:39:30
(UTC-07:00)

Okean 3 Rocket - Visible Passes

Search period start: 28 July 2016 00:00
Search period end: 07 August 2016 00:00
Orbit: 615 x 646 km, 82.5° (Epoch: 28 July)

Date Brightness Start Highest point End Pass type
(mag) Time Alt. Az. Time Alt. Az. Time Alt. Az.
28 Jul 4.4 03:15:14 10° N 03:18:16 43° NNW 03:18:16 43° NNW visible
29 Jul 6.2 01:59:29 10° NE 02:01:14 15° ENE 02:01:14 15° ENE visible
29 Jul 5.2 03:36:30 10° NNW 03:38:36 23° NW 03:38:36 23° NW visible
30 Jul 5.7 02:19:22 10° NNE 02:21:38 25° NE 02:21:38 25° NE visible
30 Jul 5.9 03:58:34 10° NW 03:58:59 11° NW 03:58:59 11° NW visible
31 Jul 5.4 02:39:58 10° N 02:42:02 27° N 02:42:02 27° N visible
01 Aug 5.7 03:01:02 10° NNW 03:02:29 20° NNW 03:02:29 20° NNW visible
02 Aug 6.3 01:44:26 10° NNE 01:45:35 16° NNE 01:45:35 16° NNE visible
02 Aug 6.1 03:22:40 10° NW 03:22:56 11° NW 03:22:56 11° NW visible
03 Aug 6.1 02:04:47 10° N 02:06:03 18° N 02:06:03 18° N visible
04 Aug 6.1 02:25:39 10° NNW 02:26:34 16° NNW 02:26:34 16° NNW visible
05 Aug 6.7 01:09:41 10° NNE 01:09:43 10° NNE 01:09:43 10° NNE visible
05 Aug 6.4 02:47:00 10° NNW 02:47:05 10° NNW 02:47:05 10° NNW visible
06 Aug 6.6 01:29:42 10° N 01:30:16 13° NNE 01:30:16 13° NNE visible
